Temp
-1 -1 -1 -1 -1 -1 -0 0 0 1 1 1 2 1 4 5 5 6 6 7 7 7 7 6 6 6 5 5 5 4 4 4 4 5 5 5 6 6 5 5 5 5 5 6
-1 -1 -1 -1 -1 -1 -1 -1 -0 0 0 0 1 2 3 6 5 5 5 6 6 6 6 6 6 5 6 5 5 5 5 4 4 4 4 4 4 5 5 5 5 5 5 5
-1 -1 -1 -1 -1 -1 -1 -1 -0 0 -0 -0 0 2 4 6 5 5 6 6 6 6 6 7 6 6 6 6 5 5 5 5 5 5 5 4 4 4 4 4 5 5 5 5
-1 -1 -1 -1 -1 -1 -1 -1 -1 -0 -1 -1 -0 -1 4 5 5 5 6 5 5 5 5 6 6 6 6 6 6 5 5 5 5 5 5 4 4 4 4 4 4 4 4 4
-2 -1 -1 -1 -1 -1 -1 -1 -1 -1 -1 -2 -0 -1 5 5 5 4 4 5 4 4 4 5 5 5 5 4 4 5 5 5 4 4 4 4 4 5 4 4 4 3 4 4
-2 -2 -2 -1 -2 -2 -1 -1 -1 -1 -2 -4 -2 -1 5 3 3 3 3 4 4 4 4 4 4 4 4 4 4 4 4 4 4 4 3 3 3 3 3 4 3 3 4 4
-3 -3 -2 -2 -2 -2 -2 -1 -2 -4 -6 -5 -2 -2 4 2 2 3 3 3 3 3 3 3 3 3 4 3 3 3 3 2 2 2 2 2 2 2 2 2 3 3 3 3
-2 -3 -3 -3 -2 -2 -3 -2 -2 -4 -5 -4 -3 -3 2 2 2 2 3 3 3 3 3 2 3 3 3 3 3 4 3 3 2 1 1 1 1 2 2 2 2 2 2 2
-3 -3 -3 -3 -3 -3 -3 -3 -2 -2 -5 -6 -2 1 2 2 2 2 1 1 1 1 2 2 2 2 2 2 2 2 2 2 2 1 1 1 1 1 1 1 1 1 1 2
-2 -3 -3 -3 -4 -3 -3 -3 -3 -3 -6 -5 -3 -1 2 2 2 1 1 2 1 1 1 1 2 2 2 2 2 1 1 2 2 1 1 1 1 0 1 1 2 2 2 2
-2 -2 -4 -4 -4 -4 -3 -3 -3 -3 -4 -5 -5 0 1 1 1 -0 -0 0 0 0 0 0 1 1 1 2 2 1 0 0 -0 -1 -1 -1 -1 -0 0 0 1 2 2 2
-3 -3 -4 -4 -4 -4 -4 -3 -3 -2 -5 -5 -5 -0 1 1 0 -1 -1 -0 -0 0 -0 -1 -1 -0 1 1 1 1 -0 -1 -2 -2 -2 -2 -1 -1 0 1 1 1 1 1
-3 -3 -4 -5 -4 -4 -4 -5 -4 -3 -4 -4 -6 -0 1 0 -1 -1 -1 -1 -1 -1 0 0 -0 -0 -1 -0 -1 -3 -3 -3 -3 -3 -2 -3 -1 -1 -0 0 0 0 1 1
-3 -3 -3 -4 -3 -3 -4 -3 -4 -4 -4 -4 -2 1 1 -1 -1 -1 -1 -2 -2 -2 -0 -0 -0 -0 -0 -1 -3 -4 -4 -3 -3 -4 -3 -2 -1 -1 -0 -0 0 0 1 1
-4 -4 -3 -3 -3 -3 -3 -3 -4 -4 -4 -3 -1 -1 -0 -1 -2 -2 -2 -2 -2 -2 -2 -1 -2 -0 -1 -2 -4 -4 -4 -3 -3 -2 -1 -1 -1 -1 -0 -1 -0 -0 0 -0
-4 -4 -4 -3 -3 -3 -3 -3 -4 -3 -3 -3 -1 -0 -1 -2 -2 -2 -2 -2 -2 -2 -3 -3 -1 -1 -1 -2 -3 -3 -3 -3 -2 -2 -1 -1 -1 -1 -1 -1 -1 -1 -1 -1
-4 -4 -4 -3 -4 -3 -3 -1 -1 -1 -1 -1 -2 -0 -1 -2 -1 -2 -2 -2 -2 -2 -3 -1 0 -0 -1 -2 -3 -3 -3 -3 -3 -2 -2 -1 -1 -2 -2 -2 -2 -2 -1 -2
-4 -4 -4 -4 -4 -6 -2 -1 -1 -1 -1 -1 -1 -1 -1 -1 -1 -1 -2 -2 -2 -2 -3 -1 -1 -1 -2 -3 -4 -4 -4 -4 -3 -3 -2 -2 -2 -2 -2 -2 -2 -3 -2 -2
-4 -4 -4 -4 -5 -2 -1 -1 -1 -1 -2 -1 -1 -1 -1 -0 -1 -1 -1 -1 -1 -2 -2 -3 -2 -2 -3 -4 -4 -4 -4 -4 -4 -3 -3 -2 -2 -2 -3 -2 -2 -2 -3 -2
-4 -4 -5 -5 -5 -5 -2 -2 -2 -1 -1 -2 -1 -1 -1 -1 -1 -1 -1 -0 -0 -1 -2 -3 -3 -3 -3 -3 -4 -3 -4 -4 -3 -3 -3 -3 -2 -2 -2 -3 -2 -3 -3 -3
-5 -4 -5 -5 -5 -3 -2 -2 -2 -2 -2 -1 -1 -1 -0 -0 -1 -1 -1 -0 -1 -0 -0 -3 -3 -3 -3 -2 -3 -2 -2 -2 -2 -2 -2 -2 -2 -3 -2 -4 -4 -4 -5 -4
-4 -4 -5 -5 -5 -4 -2 -2 -2 -2 -1 -1 -1 -1 -0 -0 -1 -1 -2 -1 -1 -1 -0 -1 -2 -2 -2 -2 -2 -2 -2 -3 -3 -3 -3 -3 -4 -4 -4 -4 -4 -4 -4 -4
-4 -3 -3 -3 -3 -3 -3 -3 -3 -2 -1 -1 -1 -1 -0 -0 -0 -1 -2 -2 -1 -1 -1 -1 -1 -2 -3 -2 -2 -3 -3 -3 -3 -3 -3 -4 -4 -4 -4 -4 -4 -4 -4 -4
-4 -4 -4 -4 -2 -2 -3 -3 -2 -2 -2 -2 -1 -1 -0 -0 -0 -1 -1 -2 -2 -2 -1 -1 -2 -2 -3 -2 -3 -3 -3 -3 -4 -4 -4 -4 -4 -4 -4 -4 -4 -4 -3 -3
-4 -4 -4 -4 -4 -2 -2 -3 -2 -2 -2 -1 -1 -1 -0 -0 -0 -1 -1 -2 -2 -2 -2 -2 -3 -3 -3 -3 -4 -4 -3 -3 -3 -4 -4 -4 -4 -4 -4 -4 -4 -4 -4 -4
-4 -4 -4 -4 -4 -3 -2 -3 -3 -2 -2 -1 -1 -1 -0 -0 -0 -0 -1 -1 -2 -2 -3 -2 -4 -3 -3 -3 -3 -4 -3 -3 -4 -4 -4 -4 -4 -4 -4 -4 -4 -4 -4 -4
Height
3039 3043 3044 3050 3059 3064 3068 3070 3072 3077 3078 3077 3076 3073 3075 3079 3078 3080 3082 3085 3088 3090 3094 3094 3096 3098 3099 3099 3102 3103 3105 3108 3109 3110 3112 3114 3118 3122 3123 3126 3128 3130 3131 3133
3032 3040 3046 3053 3058 3062 3066 3069 3071 3074 3075 3074 3072 3068 3071 3074 3073 3076 3078 3079 3081 3082 3084 3085 3085 3085 3087 3089 3090 3093 3097 3099 3100 3102 3104 3105 3109 3110 3115 3117 3119 3122 3123 3125
3035 3039 3044 3050 3056 3061 3065 3067 3070 3073 3073 3072 3070 3066 3067 3069 3070 3071 3073 3073 3074 3074 3075 3076 3076 3078 3078 3079 3083 3083 3084 3088 3091 3092 3095 3095 3097 3099 3102 3106 3111 3115 3116 3117
3039 3042 3045 3048 3053 3059 3062 3066 3068 3069 3071 3073 3073 3066 3063 3065 3066 3065 3065 3067 3068 3069 3070 3069 3069 3070 3071 3073 3076 3076 3077 3079 3080 3081 3082 3085 3087 3089 3094 3098 3103 3105 3108 3110
3037 3041 3045 3049 3053 3057 3062 3065 3067 3068 3070 3071 3069 3070 3059 3059 3061 3062 3062 3063 3064 3065 3065 3064 3064 3065 3065 3065 3066 3068 3069 3070 3072 3073 3073 3075 3078 3081 3083 3087 3090 3092 3097 3100
3038 3042 3048 3049 3053 3057 3061 3063 3066 3068 3069 3069 3065 3067 3058 3058 3058 3059 3061 3063 3063 3063 3061 3061 3061 3061 3061 3061 3060 3060 3061 3061 3062 3064 3065 3066 3068 3071 3073 3075 3078 3082 3085 3089
3040 3044 3047 3051 3054 3057 3060 3063 3066 3069 3069 3067 3064 3066 3056 3057 3057 3059 3060 3059 3058 3057 3057 3057 3057 3056 3055 3054 3053 3054 3054 3055 3056 3056 3057 3057 3059 3060 3061 3065 3068 3070 3073 3076
3041 3047 3047 3051 3053 3056 3058 3061 3063 3067 3068 3065 3063 3058 3054 3055 3056 3058 3058 3056 3055 3054 3052 3051 3051 3050 3050 3049 3048 3047 3047 3048 3048 3049 3050 3049 3050 3051 3052 3053 3055 3059 3063 3067
3040 3044 3047 3050 3052 3056 3056 3059 3062 3064 3066 3065 3058 3053 3053 3054 3055 3056 3055 3054 3053 3051 3048 3046 3045 3043 3041 3040 3040 3039 3038 3038 3040 3040 3040 3041 3041 3041 3042 3043 3045 3047 3051 3055
3039 3044 3047 3050 3052 3054 3055 3058 3061 3062 3065 3063 3054 3052 3051 3052 3054 3054 3051 3049 3047 3044 3041 3038 3036 3033 3031 3029 3028 3029 3029 3029 3029 3029 3029 3030 3031 3031 3032 3034 3035 3037 3041 3043
3040 3042 3048 3050 3052 3052 3052 3054 3057 3059 3060 3060 3060 3052 3051 3052 3053 3051 3049 3045 3041 3038 3034 3030 3026 3022 3018 3015 3014 3014 3016 3017 3018 3018 3019 3019 3020 3021 3022 3024 3025 3026 3029 3033
3040 3042 3045 3047 3047 3048 3049 3054 3056 3056 3059 3059 3060 3052 3049 3050 3050 3046 3043 3040 3037 3033 3027 3022 3017 3013 3010 3006 3005 3004 3003 3005 3008 3008 3009 3009 3009 3011 3012 3014 3014 3016 3019 3022
3040 3042 3045 3048 3050 3048 3048 3049 3052 3055 3055 3056 3058 3048 3048 3049 3046 3044 3039 3035 3031 3025 3021 3016 3013 3008 3003 3000 2999 2998 2998 2998 2997 2999 3000 3001 3001 3002 3002 3004 3005 3007 3009 3012
3039 3040 3041 3043 3043 3043 3043 3043 3048 3052 3053 3052 3046 3045 3047 3045 3041 3037 3033 3030 3025 3018 3013 3009 3007 3001 3000 2999 2996 2996 2995 2995 2994 2992 2993 2994 2993 2994 2995 2996 2998 2999 3001 3004
3039 3040 3040 3040 3041 3041 3042 3043 3044 3045 3047 3047 3044 3043 3042 3039 3036 3032 3028 3025 3020 3015 3010 3005 3000 2999 2997 2995 2993 2994 2993 2991 2989 2987 2986 2986 2987 2989 2989 2990 2991 2992 2994 2997
3038 3040 3040 3039 3039 3039 3038 3039 3040 3042 3043 3042 3042 3039 3039 3036 3033 3029 3025 3021 3017 3011 3005 3000 2998 2996 2995 2994 2993 2992 2989 2986 2983 2980 2979 2979 2981 2982 2984 2985 2986 2988 2991 2994
3037 3038 3039 3038 3037 3036 3035 3032 3034 3036 3038 3040 3038 3038 3036 3033 3030 3027 3023 3018 3013 3008 3002 2997 2995 2994 2994 2992 2990 2988 2985 2983 2980 2978 2976 2976 2977 2978 2980 2980 2982 2984 2987 2985
3035 3037 3038 3036 3036 3037 3031 3031 3031 3034 3036 3036 3036 3034 3032 3029 3028 3024 3020 3015 3010 3006 3001 2996 2994 2992 2991 2990 2989 2986 2984 2982 2980 2978 2976 2975 2974 2975 2976 2976 2979 2982 2983 2987
3034 3035 3036 3036 3035 3032 3030 3031 3032 3033 3035 3035 3034 3032 3029 3028 3025 3022 3018 3013 3008 3003 2999 2996 2993 2991 2990 2989 2987 2984 2981 2979 2979 2978 2976 2974 2972 2974 2974 2974 2977 2977 2979 2984
3032 3034 3036 3036 3036 3032 3030 3030 3031 3032 3033 3033 3032 3030 3027 3025 3023 3021 3017 3013 3008 3003 2998 2995 2992 2990 2990 2988 2986 2982 2979 2978 2977 2977 2976 2975 2975 2976 2975 2976 2979 2980 2980 2984
3030 3031 3032 3034 3034 3028 3028 3028 3030 3031 3036 3030 3029 3027 3025 3023 3022 3019 3016 3013 3009 3004 2999 2994 2992 2990 2989 2987 2985 2983 2980 2978 2978 2978 2977 2977 2977 2978 2978 2978 2979 2981 2983 2985
3026 3028 3029 3031 3032 3029 3026 3027 3029 3030 3029 3028 3027 3026 3023 3021 3020 3017 3015 3013 3010 3006 3001 2996 2993 2990 2989 2988 2986 2984 2981 2980 2979 2980 2980 2980 2980 2981 2982 2984 2986 2987 2988 2989
3025 3024 3025 3026 3025 3024 3024 3024 3026 3026 3027 3026 3025 3024 3022 3019 3018 3016 3014 3012 3009 3007 3004 3000 2995 2991 2990 2990 2989 2987 2987 2985 2985 2985 2986 2986 2987 2987 2988 2989 2990 2990 2991 2992
3020 3021 3021 3022 3021 3022 3023 3023 3023 3023 3024 3023 3022 3021 3019 3017 3015 3014 3013 3011 3009 3007 3005 3002 2998 2996 2995 2994 2992 2991 2991 2990 2990 2990 2990 2990 2990 2990 2990 2990 2991 2991 2991 2991
3018 3017 3017 3016 3017 3018 3019 3019 3019 3020 3019 3019 3019 3018 3016 3014 3013 3012 3011 3010 3008 3006 3006 3004 3001 2999 2998 2997 2995 2995 2995 2994 2994 2994 2994 2993 2993 2993 2993 2993 2993 2992 2992 2991
3012 3012 3012 3012 3013 3012 3013 3014 3014 3014 3014 3014 3014 3013 3012 3010 3010 3009 3008 3007 3006 3006 3005 3003 3002 3000 2999 2998 2997 2998 2997 2997 2997 2996 2996 2996 2996 2995 2994 2993 2993 2992 2991 2989
Wind_Speed
35 32 35 31 25 16 12 12 12 13 17 23 28 32 32 26 29 30 29 26 26 27 29 36 41 47 51 53 51 47 44 44 42 43 42 41 39 37 35 32 31 31 30 28
26 29 26 25 23 20 13 12 12 10 14 19 25 33 31 28 30 29 29 26 23 25 28 31 35 38 42 45 48 56 55 49 48 48 46 49 47 45 40 37 34 32 33 32
14 7 19 21 24 23 18 16 12 12 14 19 25 30 21 19 22 22 19 18 19 23 24 30 33 33 34 38 41 44 48 52 58 59 55 55 53 53 50 46 41 38 37 36
10 14 11 19 23 26 23 14 10 11 11 7 10 9 21 15 8 11 15 17 11 12 15 16 17 19 24 30 40 41 41 44 45 45 50 59 58 56 53 49 44 42 40 42
9 15 10 19 16 13 8 10 7 10 11 12 9 4 9 10 8 5 3 6 12 11 10 11 14 15 15 14 17 24 31 41 45 43 44 46 54 61 63 58 54 52 48 42
11 16 10 12 12 15 8 8 8 12 10 2 2 6 4 6 11 11 7 2 7 11 14 16 18 19 18 19 20 20 20 21 26 39 44 44 43 43 47 51 54 53 53 48
12 12 9 9 11 10 12 10 2 3 1 3 4 5 6 7 5 2 5 11 12 14 16 17 20 22 22 19 18 19 18 17 17 19 24 32 40 43 48 47 44 44 45 48
12 6 13 10 12 10 13 10 5 4 1 2 6 8 4 7 6 5 10 12 16 17 20 21 22 23 26 28 29 28 27 26 24 22 23 26 28 30 29 30 42 49 46 43
8 5 14 8 12 11 10 10 11 1 2 2 4 6 8 5 6 5 10 14 19 24 26 28 29 31 33 34 33 35 34 32 31 29 28 29 30 31 30 28 32 32 41 46
9 7 11 11 10 12 9 7 6 7 1 2 5 7 6 8 4 8 20 24 24 26 27 32 36 40 43 44 44 42 41 38 36 34 34 33 34 34 34 31 31 35 32 33
7 5 10 14 12 14 13 11 6 5 2 2 2 2 4 7 5 15 26 26 25 28 32 33 30 28 31 34 38 46 50 43 38 35 33 32 34 36 35 33 31 34 38 34
12 5 7 10 7 9 13 13 13 4 4 3 1 4 5 8 10 30 27 24 24 27 29 30 30 30 29 28 29 29 32 39 37 33 33 30 34 33 33 33 33 31 33 35
10 3 7 5 9 14 15 18 16 12 4 6 4 2 1 8 26 19 23 23 28 31 30 27 27 22 17 22 20 19 23 28 36 33 34 28 34 31 31 31 33 31 33 34
9 6 4 6 0 3 10 15 20 20 8 8 18 17 15 14 17 19 23 25 30 32 28 27 23 16 16 16 11 19 23 25 23 23 26 28 31 27 25 27 28 29 30 30
12 4 8 10 9 9 7 8 18 25 24 14 14 20 14 18 21 25 26 26 31 29 25 25 19 13 9 8 5 9 15 21 25 25 25 27 29 24 21 23 25 25 24 26
13 7 4 5 8 12 16 15 14 15 19 24 20 17 11 18 22 23 23 27 31 26 24 22 16 12 8 8 9 16 20 21 23 21 16 15 18 19 19 18 19 18 20 20
12 9 4 2 4 7 13 11 19 20 16 13 17 11 15 19 18 20 22 25 26 26 25 19 13 9 11 10 12 17 18 13 13 9 8 8 12 14 14 16 16 15 17 13
8 8 6 4 4 1 2 4 7 4 3 8 10 12 13 16 16 18 21 23 23 23 20 15 10 8 10 13 12 15 13 10 8 9 8 8 9 13 15 15 15 19 19 19
13 10 3 2 4 11 5 7 3 1 9 7 10 11 10 12 11 15 14 18 24 19 14 11 7 8 8 9 13 14 13 11 13 9 11 14 13 11 11 7 13 10 22 18
9 9 7 1 2 3 5 9 2 4 7 7 11 14 12 9 9 13 16 20 22 19 16 8 6 6 6 7 9 10 8 5 6 5 6 6 2 3 5 7 5 4 11 8
13 11 13 10 6 7 7 7 2 2 1 5 11 14 14 10 11 12 14 17 19 21 20 10 6 3 7 6 7 7 8 6 4 4 2 1 5 7 6 7 12 13 11 9
12 9 7 10 7 7 10 8 1 3 6 8 9 14 13 11 11 14 14 16 15 18 17 16 6 4 2 5 7 11 14 16 18 15 15 16 18 17 16 14 12 10 8 6
7 9 5 9 1 4 14 4 8 10 11 12 10 13 14 10 10 15 12 15 15 14 14 12 14 16 12 7 8 14 17 18 18 17 16 15 14 13 12 9 8 7 7 4
9 12 11 9 7 12 15 10 13 12 13 14 14 15 13 12 12 13 12 14 14 11 12 9 9 11 10 9 11 12 12 12 12 11 11 11 11 9 9 9 8 7 7 7
11 13 11 17 17 17 14 15 15 14 17 17 17 18 15 11 12 13 12 13 12 8 7 7 4 4 4 6 7 6 7 7 8 8 8 8 8 7 6 5 5 6 7 9
15 22 23 23 20 21 22 22 21 20 20 19 19 19 16 12 13 15 14 12 11 8 7 8 1 2 4 4 6 5 5 5 5 5 6 6 5 5 6 6 7 8 9 11
Wind_Direction
190 182 198 197 192 201 213 213 227 238 245 259 258 266 263 260 260 263 265 263 260 255 253 250 250 250 252 252 250 254 255 259 261 261 264 264 262 260 259 257 255 252 250 247
169 187 197 204 195 201 208 223 230 241 251 265 269 269 268 267 270 269 270 271 266 258 254 251 249 251 250 249 251 249 249 250 253 255 257 266 267 265 264 260 255 254 249 249
205 191 210 192 193 203 206 214 221 247 262 276 286 290 282 268 272 276 277 268 268 257 260 258 253 251 251 251 252 252 253 252 251 255 255 254 257 261 263 263 259 256 255 253
194 199 222 224 195 199 218 216 227 255 284 289 302 295 282 285 277 271 258 250 236 235 273 263 254 254 255 256 251 253 255 255 255 254 250 248 252 255 258 261 263 263 261 259
167 211 216 182 184 175 188 199 222 268 286 300 290 255 300 298 263 232 210 205 226 251 265 261 257 254 253 261 264 257 255 253 254 256 257 253 251 253 254 255 257 259 258 257
150 157 180 189 172 180 185 206 264 283 280 278 266 208 301 105 130 140 165 241 273 269 274 275 273 273 278 270 263 261 259 259 254 252 256 258 258 258 256 257 256 257 256 254
140 165 189 202 189 189 213 217 310 335 67 215 155 224 226 180 196 201 283 303 298 294 282 277 273 269 258 255 253 251 250 251 252 253 255 257 258 260 260 258 258 257 252 250
155 164 191 196 205 210 200 206 182 227 193 265 222 235 188 182 216 298 303 298 301 297 289 283 277 272 267 271 276 273 258 255 259 264 268 268 266 266 267 265 257 257 258 257
150 129 188 195 213 208 202 209 220 127 270 283 241 269 279 232 252 324 305 296 292 287 283 280 275 273 271 268 266 267 269 267 259 254 255 259 263 268 271 269 262 258 256 255
165 136 186 193 196 203 207 195 179 202 127 279 279 282 203 156 182 294 302 306 309 310 297 287 279 274 268 266 265 263 261 259 258 255 256 261 265 270 271 268 267 253 252 254
199 174 163 200 212 214 196 201 193 172 190 154 314 272 156 186 316 319 314 314 313 315 313 306 305 299 293 283 276 267 257 253 255 257 259 261 264 267 268 270 261 257 244 247
179 161 154 190 236 229 223 231 218 215 185 141 214 281 205 196 320 321 314 309 308 312 321 317 313 310 302 295 294 287 272 252 253 253 256 265 272 272 266 257 255 256 248 243
190 153 132 194 237 224 221 223 219 220 162 205 182 240 217 294 313 314 315 316 316 317 320 320 315 303 306 307 298 292 271 250 241 240 265 272 268 265 257 256 255 255 250 242
209 211 212 190 245 210 216 228 227 222 211 219 235 279 315 316 319 328 325 328 328 326 327 317 316 323 304 288 299 270 266 267 282 287 279 271 263 272 265 260 257 258 252 242
214 239 250 253 266 279 274 246 226 226 231 237 275 297 327 325 325 329 325 331 332 331 326 316 321 316 307 319 305 275 280 283 285 285 281 273 263 274 269 262 259 258 250 234
204 229 275 276 255 261 262 250 241 236 241 255 278 300 340 323 323 329 329 330 334 332 329 323 317 305 301 306 293 286 290 295 296 287 270 261 267 262 261 259 251 250 242 234
201 229 281 275 246 295 280 261 241 243 259 275 274 325 328 319 335 328 326 328 333 332 329 329 312 291 292 299 302 301 303 309 312 304 273 253 246 243 245 241 233 231 230 215
210 230 262 284 274 291 175 116 107 143 288 288 314 324 319 322 329 326 329 327 328 328 325 329 316 299 293 299 314 313 312 305 353 328 326 302 251 261 237 241 240 233 217 244
215 243 253 279 266 286 234 193 138 71 120 30 358 343 330 312 332 329 343 345 353 349 329 326 333 292 299 320 315 308 302 262 285 286 338 332 255 291 258 249 231 241 228 227
207 223 227 202 263 243 183 185 196 304 203 349 353 350 335 313 316 336 349 1 358 355 351 341 321 314 1 339 346 345 333 324 326 347 343 359 144 211 227 252 110 124 136 146
206 227 232 231 253 276 220 177 250 211 192 337 347 344 337 304 313 340 348 355 4 1 357 336 343 28 11 356 9 343 319 289 298 303 221 163 168 204 178 105 103 102 105 101
198 197 204 211 222 259 172 196 221 245 279 282 329 342 333 304 302 323 339 340 359 4 11 22 4 314 349 27 19 51 73 86 86 93 93 91 95 95 99 100 100 96 87 73
225 211 218 216 239 178 180 198 297 293 275 283 295 333 330 311 286 296 317 328 340 2 8 23 39 59 78 97 103 89 88 89 89 89 90 92 92 90 83 82 82 77 74 66
234 236 238 261 246 233 254 273 277 297 277 288 292 310 320 316 277 288 302 312 321 345 2 19 50 69 84 97 91 86 85 89 91 90 86 81 78 74 70 65 55 42 25 7
233 239 248 260 260 240 242 258 258 265 278 288 291 300 310 301 283 274 287 295 309 319 332 335 31 74 89 99 97 88 88 89 88 83 78 78 78 74 68 57 39 22 10 0
260 251 248 263 277 275 261 251 255 260 272 287 289 291 297 288 282 271 286 272 290 280 283 312 315 58 100 96 88 92 95 83 78 84 88 87 78 60 40 24 11 1 353 347